Starlink 33808

operational
NORAD ID: 63767 Int'l Des: 2025-089 Owner: SPXS Country: US Constellation: starlink
LEOCIRCULAR

Starlink 33808について

説明を読み込み中...

リアルタイム位置

3D地球を読み込み中...

次回通過

高度履歴

Altitude vs Time

uPlot chart will show altitude changes over time

軌道要素

1 63767U 25089S 25260.19397522 .00024484 00000-0 89675-3 0 9996
2 63767 43.0023 305.0463 0001405 257.2377 102.8318 15.27563742 22422
Epoch: Sep 17, 2025 • Age: 23 hours

現在のステータス

高度 490.6 km
速度 7.62 km/s
衛星直下点 -30.66°S, 156.76°W
打ち上げ日 Apr 29, 2025
運用期間 0.3 years
タイプ internet

技術仕様

分類 Payload
質量 575.00 kg
乾燥質量 530.00 kg
総質量 575.00 kg
長さ 0.30 m
直径 4.10 m
スパン 29.00 m
形状 Box + pan
製造者 SPXS
バスタイプ Starlink V2MO
フェーズステータス In Orbit
所有者/国 SPXS/US

大規模コンステレーション

Loading constellations...